Flag for U.S.A. Weather past 2 weeks in Grand Junction, Colorado, U.S.A.

Now
80 °F

Sunny.


Feels Like: 79 °F
Forecast: 61 / 99 °F
Wind: 13 mph from Southeast

Location: Walker Field

Current Time: Jul 22, 2014 at 10:26:36 AM

Latest Report: Jul 22, 2014 at 9:53 AM


Visibility: 10 mi

Pressure: 30.07 "Hg

Humidity: 17%

Dew point: 32 °F

Location of Grand JunctionLocation

Historic Weather in Grand Junction — Graph

°F

Grand Junction temperature yesterday

Maximum temperature yesterday: 95 °F (at 4:53 PM)
Minimum temperature yesterday: 64 °F (at 5:53 AM)
Average temperature yesterday: 80 °F

Past Weeks' High & Low Weather Summary

 TemperatureHumidityPressure
High97 °F (Jul 7, 2:53 PM)81% (Jul 11, 5:53 AM)30.09 "Hg (Jul 11, 5:53 AM)
Low62 °F (Jul 18, 5:53 AM)7% (Jul 21, 5:53 PM)29.64 "Hg (Jul 16, 6:53 PM)
Average81 °F29%29.85 "Hg
* Reported Jul 7 8:53 AM — Jul 22 8:53 AM, Grand Junction, Weather by CustomWeather, © 2014

Note: Actual official high and low records may vary slightly from our data, if they occured in-between our weather recording intervals... More about our weather records

Advertising

Grand Junction weather history for July 11, 2014

 ConditionsComfort  
Time TempWeatherWind HumidityBarometerVisibility
12:53 AM
Jul 11
77 °FOvercast.21 mph42%29.84 "Hg10 mi
1:53 AM74 °FOvercast.10 mph46%29.86 "Hg10 mi
3:00 AM67 °FThundershowers. Partly cloudy.15 mph76%30.07 "Hg10 mi
3:53 AM68 °FPassing clouds.6 mph70%29.85 "Hg10 mi
4:53 AM67 °FLight rain. Passing clouds.8 mph79%29.86 "Hg10 mi
5:53 AM65 °FClear.No wind81%29.88 "Hg10 mi
6:53 AM69 °FClear.5 mph66%29.90 "Hg10 mi
7:53 AM71 °FSunny.3 mph66%29.91 "Hg10 mi
8:53 AM76 °FSunny.10 mph47%29.91 "Hg10 mi
9:53 AM80 °FSunny.5 mph39%29.89 "Hg10 mi
10:53 AM82 °FSunny.5 mph37%29.88 "Hg10 mi
11:53 AM87 °FSunny.6 mph31%29.87 "Hg10 mi
12:53 PM87 °FSunny.13 mph31%29.85 "Hg10 mi
1:53 PM88 °FSunny.8 mph29%29.83 "Hg10 mi
2:53 PM91 °FSunny.9 mph26%29.82 "Hg10 mi
3:53 PM92 °FPassing clouds.12 mph24%29.79 "Hg10 mi
4:53 PM91 °FThunderstorms. Scattered clouds.7 mph25%29.78 "Hg10 mi
5:53 PM83 °FThunderstorms. Partly sunny.12 mph51%29.81 "Hg8 mi
6:53 PM88 °FScattered clouds.10 mph33%29.77 "Hg10 mi
7:53 PM87 °FScattered clouds.10 mph29%29.78 "Hg10 mi
8:53 PM80 °FSunny.17 mph41%29.83 "Hg10 mi
9:53 PM79 °FClear.16 mph36%29.84 "Hg10 mi
10:53 PM76 °FClear.13 mph45%29.85 "Hg10 mi
11:53 PM74 °FClear.12 mph46%29.86 "Hg10 mi
Weather by CustomWeather, © 2014

See weather overviewHow to use our weather pages